[[{"header":{"parameterUnit":"m.s-1","parameterCategory":2,"la1":30.2991,"la2":30.254,"lo1":-89.0895,"lo2":-89.0444,"dy":0.0017,"dx":0.0017,"nx":28,"ny":28,"refTime":"2024-03-28T21:00:00:Z","depth":"0","parameterNumber":2,"parameterNumberName":"U-component_of_CURRENTS"},"data":[0,0,0,0,0,0,0,0,0,0,0,0,0,0,0,0,0,0,0,0,0,0,0,0,0,0,0,0,0,0,0,0,0,0,0,0,0,0,0,0,0,0,0,0,0,0,0,0,0,0,0,0,0,0,0,0,0,0,-0.3157,-0.3157,0,-0.3144,-0.3143,-0.3142,-0.3095,-0.3094,-0.3094,-0.3094,-0.3033,-0.3032,-0.3031,0,0,0,0,0,0,0,0,0,0,0,0,0,-0.304,-0.3043,-0.3156,-0.3157,-0.3157,-0.3144,-0.3143,-0.3142,-0.3095,-0.3094,-0.3094,-0.3093,-0.3033,-0.3032,-0.303,0,0,0,0,0,0,0,0,0,0,0,0,0,-0.3059,-0.3044,-0.3156,-0.3137,-0.3136,-0.3144,-0.3143,-0.3142,-0.3095,-0.3094,-0.3094,-0.3093,-0.3034,-0.3032,-0.303,-0.3033,0,0,-0.3025,-0.3024,0,0,0,0,0,0,0,0,-0.3058,-0.3063,-0.314,-0.3139,-0.3137,-0.3126,-0.308,-0.3105,-0.3095,-0.3103,-0.3093,-0.3093,-0.3065,-0.306,-0.305,-0.303,-0.3028,-0.3025,-0.3024,-0.3023,-0.3022,0,0,0,0,0,0,0,-0.3057,-0.3063,-0.3144,-0.314,-0.3139,-0.3096,-0.3098,-0.3084,-0.3082,-0.3103,-0.3101,-0.311,-0.3062,-0.3052,-0.3049,-0.3027,-0.3025,-0.3023,-0.3022,-0.3021,-0.2986,-0.2986,0,0,0,0,0,0,-0.3079,-0.3062,-0.3145,-0.3145,-0.3103,-0.3099,-0.3101,-0.3125,-0.3083,-0.3078,-0.3111,-0.3108,-0.3056,-0.3051,-0.3046,-0.3008,-0.3023,-0.3021,-0.302,-0.2986,-0.2986,-0.2986,0,0,0,0,0,0,-0.3077,-0.3087,-0.3146,-0.3107,-0.3112,-0.3103,-0.3129,-0.3125,-0.3118,-0.3091,-0.3084,-0.3109,-0.3055,-0.3049,-0.3038,-0.3007,-0.302,-0.3019,-0.2986,-0.2986,-0.2986,-0.2956,0,0,0,0,0,0,-0.3074,-0.3087,-0.3102,-0.311,-0.3116,-0.3154,-0.3131,-0.3126,-0.3128,-0.3124,-0.3087,-0.3081,-0.3054,-0.3041,-0.3037,-0.3004,-0.3017,-0.2986,-0.2986,-0.2986,-0.2957,-0.2955,-0.2954,0,0,0,0,0,-0.307,-0.3093,-0.3103,-0.3113,-0.3141,-0.3155,-0.3153,-0.3138,-0.3129,-0.3127,-0.3105,-0.3082,-0.3039,-0.304,-0.3035,-0.3001,-0.2986,-0.2986,-0.2986,-0.2958,-0.2956,-0.2954,0,0,0,0,0,0,-0.3046,-0.3092,-0.3102,-0.3138,-0.3151,-0.315,-0.3145,-0.3146,-0.3128,-0.312,-0.309,-0.3083,-0.3056,-0.3049,-0.3052,-0.2996,-0.3006,-0.3005,-0.2986,-0.2984,-0.2982,-0.2957,-0.3016,0,0,0,0,0,-0.3055,-0.308,-0.3116,-0.3138,-0.3149,-0.3151,-0.3153,-0.3151,-0.3144,-0.3134,-0.3109,-0.3083,-0.3054,-0.3038,-0.3017,-0.2995,-0.2978,-0.2971,-0.2969,-0.2967,-0.2946,-0.2915,-0.2908,-0.2988,-0.2988,-0.2988,0,0,-0.3047,-0.3078,-0.3089,-0.3134,-0.3137,-0.3125,-0.3147,-0.3157,-0.3129,-0.3132,-0.3082,-0.308,-0.3051,-0.3016,-0.3003,-0.3003,-0.2939,-0.2968,-0.2966,-0.2945,-0.2914,-0.2906,-0.2899,-0.2988,-0.2988,-0.2988,0,0,-0.301,-0.3078,-0.3064,-0.3084,-0.3108,-0.3117,-0.3125,-0.3133,-0.3121,-0.3104,-0.3084,-0.3066,-0.3035,-0.2993,-0.2971,-0.2954,-0.2936,-0.2959,-0.2919,-0.289,-0.2882,-0.2875,-0.2849,-0.284,-0.2953,-0.2952,-0.2952,0,-0.2986,-0.2998,-0.306,-0.3047,-0.3056,-0.311,-0.3085,-0.3083,-0.308,-0.3072,-0.3084,-0.3029,-0.3008,-0.2944,-0.2933,-0.2942,-0.2937,-0.2924,-0.2885,-0.2878,-0.2871,-0.2846,-0.2836,-0.2951,-0.2951,-0.2951,-0.2951,0,-0.2915,-0.2941,-0.294,-0.2943,-0.2961,-0.2967,-0.299,-0.2997,-0.3008,-0.3001,-0.2974,-0.2959,-0.2927,-0.2918,-0.2913,-0.2856,-0.2872,-0.2889,-0.2883,-0.286,-0.2836,-0.2826,-0.2949,-0.295,-0.295,-0.295,0,0,-0.2801,-0.2875,-0.2868,-0.2884,-0.292,-0.2934,-0.2911,-0.2912,-0.2907,-0.2901,-0.2874,-0.2824,-0.2848,-0.2825,-0.2827,-0.2797,-0.2746,-0.2824,-0.2823,-0.2785,-0.2689,-0.2608,-0.259,-0.2767,-0.2765,-0.2764,-0.2693,0,-0.2712,-0.2705,-0.275,-0.2738,-0.2748,-0.2814,-0.2799,-0.2814,-0.2835,-0.2832,-0.2819,-0.2802,-0.2803,-0.2808,-0.2771,-0.2769,-0.2719,-0.2763,-0.2727,-0.2725,-0.2645,-0.2575,-0.2463,-0.2382,-0.2683,-0.2682,-0.2681,0,-0.2593,-0.2628,-0.2614,-0.2694,-0.2699,-0.269,-0.2729,-0.2726,-0.2742,-0.2762,-0.2749,-0.2766,-0.2717,-0.2739,-0.2669,-0.2709,-0.268,-0.2669,-0.2667,-0.2588,-0.2624,-0.2453,-0.2353,-0.2338,-0.2666,-0.2667,-0.2668,0,-0.2495,-0.2527,-0.2533,-0.2553,-0.2631,-0.2631,-0.2661,-0.2693,-0.2707,-0.2722,-0.2743,-0.2706,-0.2702,-0.2658,-0.2633,-0.2659,-0.2567,-0.2602,-0.2487,-0.2483,-0.2372,-0.2359,-0.2233,-0.2517,-0.2518,-0.2518,-0.2518,0,-0.2403,-0.2407,-0.2496,-0.2509,-0.2511,-0.2583,-0.2585,-0.2618,-0.2662,-0.2668,-0.2702,-0.2693,-0.2686,-0.2649,-0.2614,-0.2509,-0.2542,-0.2443,-0.244,-0.236,-0.2348,-0.232,-0.236,-0.2515,-0.2516,-0.2516,-0.2517,0,-0.23,-0.2362,-0.2377,-0.2455,-0.2472,-0.2474,-0.2545,-0.2559,-0.2618,-0.2629,-0.2636,-0.2673,-0.262,-0.2592,-0.2528,-0.2475,-0.2344,-0.2346,-0.2251,-0.2235,-0.2102,-0.2146,-0.202,-0.1966,-0.2196,-0.2193,-0.2191,0,-0.225,-0.2246,-0.2316,-0.2327,-0.236,-0.2389,-0.2412,-0.2504,-0.2528,-0.26,-0.2592,-0.258,-0.2521,-0.2402,-0.2311,-0.2198,-0.2223,-0.2046,-0.2046,-0.2034,-0.2083,-0.2131,-0.21,-0.1901,-0.1896,-0.1893,-0.189,0,-0.2137,-0.2159,-0.2181,-0.2212,-0.2237,-0.227,-0.2314,-0.2338,-0.2442,-0.2446,-0.2425,-0.2387,-0.2304,-0.214,-0.2039,-0.1965,-0.1993,-0.1964,-0.197,-0.1828,-0.1854,-0.1822,-0.2033,-0.1857,-0.186,-0.1863,-0.1865,-0.1866,-0.2024,-0.2012,-0.2043,-0.2057,-0.2099,-0.2126,-0.2067,-0.2137,-0.2137,-0.2067,-0.2201,-0.2046,-0.201,-0.1833,-0.1774,-0.1647,-0.1733,-0.1592,-0.1644,-0.1693,-0.1626,-0.1755,-0.1571,-0.1572,-0.1574,-0.1575,-0.1576,0,-0.187,-0.1878,-0.1888,-0.1916,-0.1905,-0.1962,-0.1965,-0.1853,-0.1762,-0.1719,-0.1647,-0.1611,-0.1529,-0.1506,-0.1445,-0.1363,-0.1355,-0.1337,-0.1386,-0.1367,-0.1472,-0.1442,-0.1199,-0.1199,-0.1199,-0.1199,-0.1199,-0.12,-0.1788,-0.1743,-0.176,-0.1696,-0.1702,-0.1553,-0.1483,-0.1358,-0.1235,-0.1022,-0.0927,-0.0912,-0.1138,-0.1371,-0.1332,-0.126,-0.1256,-0.1195,-0.1255,-0.1353,-0.1382,-0.141,-0.1387,-0.1137,-0.1137,-0.1082,-0.1082,-0.1082]},{"header":{"parameterUnit":"m.s-1","parameterCategory":2,"la1":30.2991,"la2":30.254,"lo1":-89.0895,"lo2":-89.0444,"dy":0.0017,"dx":0.0017,"nx":28,"ny":28,"refTime":"2024-03-28T21:00:00:Z","depth":"0","parameterNumber":3,"parameterNumberName":"V-component_of_CURRENTS"},"data":[0,0,0,0,0,0,0,0,0,0,0,0,0,0,0,0,0,0,0,0,0,0,0,0,0,0,0,0,0,0,0,0,0,0,0,0,0,0,0,0,0,0,0,0,0,0,0,0,0,0,0,0,0,0,0,0,0,0,0.023,0.0232,0,0.037,0.0371,0.0373,0.048,0.0481,0.0482,0.0483,0.0674,0.0678,0.0682,0,0,0,0,0,0,0,0,0,0,0,0,0,0.0157,0.0157,0.023,0.0232,0.0234,0.037,0.0372,0.0373,0.0479,0.0481,0.0482,0.0483,0.0673,0.0678,0.0683,0,0,0,0,0,0,0,0,0,0,0,0,0,0.023,0.0157,0.023,0.0304,0.0312,0.0369,0.0372,0.0374,0.0479,0.0481,0.0482,0.0484,0.0671,0.0677,0.0683,0.0688,0,0,0.0702,0.0705,0,0,0,0,0,0,0,0,0.0226,0.0233,0.0291,0.0299,0.0308,0.041,0.0416,0.0482,0.0479,0.0415,0.0483,0.0485,0.059,0.0603,0.0623,0.0697,0.0706,0.0703,0.0706,0.0709,0.0711,0,0,0,0,0,0,0,0.022,0.0228,0.0285,0.0293,0.0304,0.0365,0.0376,0.0429,0.0492,0.042,0.0429,0.0445,0.0595,0.0617,0.0629,0.0708,0.0702,0.0708,0.0712,0.0714,0.0776,0.0774,0,0,0,0,0,0,0.0198,0.0222,0.028,0.0289,0.0271,0.0365,0.0377,0.0375,0.049,0.0509,0.0444,0.045,0.0606,0.0622,0.0636,0.0634,0.0709,0.0715,0.0718,0.0778,0.0776,0.0773,0,0,0,0,0,0,0.0195,0.0201,0.0275,0.0261,0.0275,0.0363,0.0361,0.0377,0.0401,0.0508,0.0528,0.0452,0.0608,0.0627,0.0668,0.0643,0.0717,0.0723,0.078,0.0777,0.0774,0.0639,0,0,0,0,0,0,0.0192,0.0199,0.018,0.0258,0.0275,0.0297,0.036,0.0378,0.041,0.0419,0.0521,0.0541,0.0611,0.0658,0.0674,0.0652,0.0728,0.0783,0.0779,0.0775,0.0646,0.0631,0.0619,0,0,0,0,0,0.0189,0.0159,0.0178,0.0185,0.0249,0.0296,0.0309,0.0379,0.0408,0.0408,0.0471,0.0538,0.0646,0.0662,0.0681,0.066,0.0785,0.078,0.0776,0.0652,0.0634,0.062,0,0,0,0,0,0,0.0107,0.0169,0.0192,0.0178,0.0227,0.0314,0.0318,0.0365,0.0414,0.0421,0.0519,0.0542,0.0568,0.0624,0.0639,0.0663,0.0723,0.0722,0.0622,0.0607,0.0594,0.0565,0.0733,0,0,0,0,0,0.0079,0.0076,0.0147,0.0131,0.0153,0.023,0.0255,0.0302,0.0361,0.0385,0.0455,0.0517,0.0561,0.0592,0.0643,0.0659,0.0712,0.0654,0.064,0.0629,0.0616,0.0657,0.0647,0.0758,0.0758,0.0759,0,0,0.0043,0.0074,0.0072,0.0114,0.0157,0.0165,0.0248,0.0277,0.028,0.0397,0.0413,0.0477,0.0553,0.0571,0.0587,0.0618,0.0625,0.0623,0.0613,0.0606,0.0651,0.0641,0.0631,0.0755,0.0756,0.0756,0,0,-0.0029,-0.0006,-0.0026,0.0005,0.0061,0.0109,0.011,0.0189,0.0221,0.0249,0.0322,0.036,0.0441,0.0482,0.0514,0.0454,0.0552,0.0473,0.039,0.0429,0.0421,0.0414,0.047,0.0469,0.0468,0.0467,0.0467,0,-0.008,-0.0093,-0.0027,-0.0037,-0.002,0.0073,0.0057,0.0095,0.0173,0.0194,0.0235,0.033,0.0393,0.041,0.0386,0.0424,0.0473,0.0447,0.0412,0.0407,0.0402,0.0462,0.0462,0.046,0.0461,0.0462,0.0463,0,-0.0157,-0.0167,-0.0178,-0.0162,-0.0139,-0.0136,-0.0069,-0.0047,0.0007,0.0059,0.0097,0.0179,0.0241,0.0256,0.0306,0.0296,0.0351,0.0391,0.0453,0.0383,0.045,0.0453,0.045,0.0453,0.0455,0.0457,0,0,-0.0262,-0.0238,-0.0241,-0.0247,-0.02,-0.0185,-0.0188,-0.0148,-0.0138,-0.0072,-0.0054,0.0,0.0065,0.0102,0.0171,0.0195,0.0202,0.0267,0.0273,0.0323,0.0305,0.0385,0.0398,0.0243,0.0242,0.0242,0.0367,0,-0.034,-0.0388,-0.0348,-0.0388,-0.04,-0.0323,-0.0327,-0.0281,-0.022,-0.018,-0.0101,-0.0055,0.0001,0.0039,0.0064,0.0183,0.0204,0.0165,0.0366,0.0372,0.0452,0.0401,0.0436,0.0553,0.0371,0.0372,0.0372,0,-0.0422,-0.0439,-0.0492,-0.048,-0.0477,-0.0485,-0.045,-0.0439,-0.0364,-0.0312,-0.0257,-0.0168,-0.0116,-0.0058,0.0078,0.0057,0.0152,0.0235,0.0243,0.0366,0.0457,0.0594,0.0568,0.0704,0.0378,0.0378,0.0377,0,-0.051,-0.0533,-0.0577,-0.0577,-0.0555,-0.0558,-0.0542,-0.0481,-0.0461,-0.0391,-0.0351,-0.0266,-0.0192,-0.0089,0.0095,0.0087,0.0262,0.0283,0.0438,0.0447,0.0539,0.0556,0.0668,0.0349,0.0348,0.0348,0.0348,0,-0.0598,-0.0629,-0.062,-0.0643,-0.0687,-0.0637,-0.0653,-0.0618,-0.0555,-0.0516,-0.0425,-0.0356,-0.0197,-0.0058,0.0074,0.0285,0.0254,0.0414,0.0476,0.0494,0.0504,0.0681,0.0735,0.0353,0.0352,0.0351,0.035,0,-0.0678,-0.0676,-0.0722,-0.0722,-0.0728,-0.0755,-0.073,-0.0727,-0.0658,-0.06,-0.0576,-0.0415,-0.0218,-0.0043,0.017,0.0286,0.0561,0.0539,0.056,0.062,0.0871,0.0915,0.1089,0.1188,0.0711,0.0714,0.0716,0,-0.0722,-0.0755,-0.0791,-0.0823,-0.0825,-0.0848,-0.0856,-0.0796,-0.077,-0.0611,-0.058,-0.0381,-0.0193,0.0143,0.0369,0.0616,0.0698,0.0775,0.0747,0.0883,0.0978,0.0994,0.1065,0.0822,0.0825,0.0827,0.0829,0,-0.0795,-0.0802,-0.0839,-0.0913,-0.0941,-0.0964,-0.0955,-0.0931,-0.0815,-0.0679,-0.0477,-0.031,-0.001,0.0313,0.0613,0.0745,0.0884,0.0831,0.0963,0.1058,0.1092,0.1219,0.0754,0.085,0.0848,0.0846,0.0845,0.0844,-0.0834,-0.0882,-0.0927,-0.0989,-0.1029,-0.1028,-0.0953,-0.0883,-0.0734,-0.0412,-0.0333,0.0074,0.0283,0.0728,0.0878,0.1155,0.1099,0.122,0.126,0.1263,0.1356,0.0943,0.1114,0.1113,0.1113,0.1112,0.1112,0,-0.0876,-0.0924,-0.0997,-0.1037,-0.1053,-0.1057,-0.097,-0.0808,-0.0523,-0.0222,0.0094,0.0583,0.0905,0.1118,0.1405,0.1566,0.159,0.1629,0.1646,0.1697,0.1332,0.1335,0.1573,0.1573,0.1572,0.1572,0.1572,0.1572,-0.0898,-0.0973,-0.1009,-0.1035,-0.103,-0.0894,-0.0777,-0.0537,-0.0267,0.0322,0.0771,0.1036,0.1249,0.1623,0.1902,0.1922,0.207,0.2042,0.2138,0.1866,0.183,0.1795,0.1811,0.2145,0.2145,0.2485,0.2488,0.2491]}],[{"header":{"parameterUnit":"m.s-1","parameterCategory":2,"la1":30.2991,"la2":30.254,"lo1":-89.0895,"lo2":-89.0444,"dy":0.0017,"dx":0.0017,"nx":28,"ny":28,"refTime":"2024-03-28T21:00:00:Z","depth":"2","parameterNumber":2,"parameterNumberName":"U-component_of_CURRENTS"},"data":[0,0,0,0,0,0,0,0,0,0,0,0,0,0,0,0,0,0,0,0,0,0,0,0,0,0,0,0,0,0,0,0,0,0,0,0,0,0,0,0,0,0,0,0,0,0,0,0,0,0,0,0,0,0,0,0,0,0,-0.2374,-0.2374,0,-0.2394,-0.2394,-0.2395,-0.2391,-0.239,-0.239,-0.2389,-0.2408,-0.2409,-0.2411,0,0,0,0,0,0,0,0,0,0,0,0,0,-0.231,-0.2312,-0.2374,-0.2374,-0.2374,-0.2394,-0.2394,-0.2395,-0.2391,-0.239,-0.2389,-0.2389,-0.2408,-0.2409,-0.2411,0,0,0,0,0,0,0,0,0,0,0,0,0,-0.2338,-0.2312,-0.2374,-0.2371,-0.2371,-0.2394,-0.2394,-0.2395,-0.2391,-0.239,-0.2389,-0.2388,-0.2407,-0.2409,-0.2411,-0.2444,0,0,-0.2416,-0.2417,0,0,0,0,0,0,0,0,-0.2337,-0.2341,-0.2372,-0.2372,-0.2371,-0.2385,-0.2379,-0.241,-0.2392,-0.2388,-0.2389,-0.2388,-0.2399,-0.2401,-0.2413,-0.2445,-0.2446,-0.2417,-0.2418,-0.2418,-0.2419,0,0,0,0,0,0,0,-0.2335,-0.234,-0.2386,-0.2372,-0.2371,-0.2361,-0.2364,-0.2385,-0.2402,-0.2388,-0.2387,-0.2383,-0.2399,-0.2411,-0.2413,-0.2446,-0.2417,-0.2418,-0.2419,-0.242,-0.2461,-0.2461,0,0,0,0,0,0,-0.2327,-0.2339,-0.2385,-0.2386,-0.2346,-0.2363,-0.2367,-0.2385,-0.2402,-0.2402,-0.2384,-0.2383,-0.2409,-0.2411,-0.2414,-0.2432,-0.2418,-0.242,-0.2421,-0.2461,-0.2461,-0.2461,0,0,0,0,0,0,-0.2326,-0.2332,-0.2385,-0.2358,-0.2363,-0.2365,-0.2386,-0.2386,-0.2406,-0.2398,-0.2399,-0.2403,-0.2408,-0.2412,-0.2436,-0.2434,-0.2421,-0.2423,-0.2461,-0.2461,-0.2461,-0.2483,0,0,0,0,0,0,-0.2325,-0.2333,-0.2344,-0.2359,-0.2364,-0.2403,-0.2386,-0.2387,-0.2403,-0.2402,-0.2415,-0.2415,-0.2408,-0.2434,-0.2438,-0.2436,-0.2424,-0.2461,-0.2461,-0.2461,-0.2482,-0.2484,-0.2485,0,0,0,0,0,-0.2323,-0.2338,-0.2345,-0.235,-0.2381,-0.2404,-0.2407,-0.2406,-0.2405,-0.242,-0.2425,-0.2415,-0.2436,-0.2436,-0.2441,-0.2439,-0.2461,-0.2461,-0.2461,-0.2481,-0.2483,-0.2485,0,0,0,0,0,0,-0.2314,-0.2339,-0.2347,-0.2369,-0.2388,-0.2402,-0.2408,-0.2418,-0.2438,-0.2434,-0.2434,-0.2435,-0.2444,-0.2447,-0.2448,-0.2448,-0.244,-0.2441,-0.2454,-0.2456,-0.2457,-0.2454,-0.2425,0,0,0,0,0,-0.2319,-0.2334,-0.2362,-0.2376,-0.239,-0.2407,-0.2416,-0.2422,-0.2436,-0.2444,-0.2455,-0.2455,-0.2449,-0.2459,-0.2455,-0.248,-0.2464,-0.2475,-0.2476,-0.2478,-0.2477,-0.2457,-0.2457,-0.2461,-0.2461,-0.2461,0,0,-0.2316,-0.233,-0.2338,-0.2374,-0.2388,-0.2412,-0.2412,-0.2431,-0.2443,-0.2444,-0.247,-0.2464,-0.2454,-0.2461,-0.2466,-0.2468,-0.2466,-0.2478,-0.2479,-0.2477,-0.2457,-0.2457,-0.2456,-0.2461,-0.2461,-0.2461,0,0,-0.2311,-0.2338,-0.2352,-0.2375,-0.2399,-0.2414,-0.2426,-0.2457,-0.2466,-0.2493,-0.2478,-0.2481,-0.2496,-0.2482,-0.2475,-0.249,-0.2468,-0.2483,-0.2501,-0.2482,-0.2481,-0.2481,-0.2455,-0.2451,-0.2492,-0.2493,-0.2493,0,-0.2301,-0.2329,-0.2357,-0.2379,-0.2391,-0.242,-0.244,-0.246,-0.2492,-0.2497,-0.2499,-0.2499,-0.2498,-0.249,-0.2489,-0.2493,-0.2476,-0.2497,-0.2484,-0.2483,-0.2482,-0.2455,-0.2451,-0.2494,-0.2493,-0.2493,-0.2493,0,-0.2309,-0.2336,-0.2347,-0.2384,-0.2408,-0.2428,-0.2461,-0.2486,-0.2501,-0.2511,-0.2514,-0.2516,-0.2512,-0.2509,-0.2507,-0.2496,-0.2484,-0.2481,-0.2481,-0.2483,-0.2454,-0.245,-0.2495,-0.2495,-0.2494,-0.2494,0,0,-0.2264,-0.2338,-0.2339,-0.2362,-0.2412,-0.2431,-0.2461,-0.2489,-0.2503,-0.2523,-0.253,-0.2523,-0.2524,-0.2516,-0.2512,-0.2507,-0.2488,-0.2498,-0.2497,-0.2474,-0.2439,-0.2356,-0.2343,-0.2484,-0.2483,-0.2483,-0.2421,0,-0.2254,-0.2296,-0.2334,-0.237,-0.2397,-0.2438,-0.2465,-0.2493,-0.2514,-0.2533,-0.2526,-0.2529,-0.2526,-0.2527,-0.2518,-0.2497,-0.2478,-0.2504,-0.2439,-0.2437,-0.2364,-0.2336,-0.217,-0.2094,-0.2417,-0.2416,-0.2415,0,-0.2233,-0.227,-0.2307,-0.237,-0.2386,-0.241,-0.2453,-0.2482,-0.2513,-0.2528,-0.2532,-0.2535,-0.2529,-0.2526,-0.2485,-0.2503,-0.2469,-0.2451,-0.2448,-0.2359,-0.2345,-0.2145,-0.2074,-0.2408,-0.2408,-0.2409,-0.241,0,-0.2171,-0.2239,-0.2266,-0.2289,-0.2371,-0.2387,-0.2424,-0.247,-0.2493,-0.2523,-0.2538,-0.2532,-0.2528,-0.2495,-0.2462,-0.2474,-0.2408,-0.2417,-0.2304,-0.2298,-0.2137,-0.2117,-0.237,-0.237,-0.2371,-0.2371,-0.2371,0,-0.2135,-0.2154,-0.2241,-0.2259,-0.2287,-0.2355,-0.2383,-0.2421,-0.2472,-0.2483,-0.2527,-0.2521,-0.2522,-0.2491,-0.2454,-0.2357,-0.2395,-0.2291,-0.227,-0.2139,-0.2121,-0.2382,-0.2384,-0.2368,-0.2369,-0.2369,-0.237,0,-0.2058,-0.212,-0.2151,-0.2236,-0.2258,-0.2274,-0.2354,-0.2377,-0.2441,-0.2455,-0.2465,-0.2506,-0.2458,-0.2442,-0.2384,-0.2334,-0.2262,-0.2215,-0.2058,-0.2019,-0.2168,-0.2172,-0.2081,-0.2077,-0.2074,-0.2072,-0.207,0,-0.2021,-0.2031,-0.2109,-0.2124,-0.216,-0.2205,-0.2237,-0.2332,-0.2355,-0.2424,-0.2413,-0.2411,-0.2353,-0.2254,-0.2166,-0.2066,-0.2156,-0.1875,-0.1863,-0.2146,-0.2136,-0.2145,-0.2153,-0.1659,-0.1653,-0.1649,-0.1646,0,-0.1936,-0.1961,-0.199,-0.2027,-0.2061,-0.2098,-0.2147,-0.2173,-0.2268,-0.2285,-0.2268,-0.2235,-0.2148,-0.1963,-0.1868,-0.1798,-0.1881,-0.1781,-0.2098,-0.1764,-0.1744,-0.1736,-0.1758,-0.1607,-0.1611,-0.1613,-0.1616,-0.1617,-0.1846,-0.1843,-0.1877,-0.1897,-0.1939,-0.1957,-0.1923,-0.1992,-0.2003,-0.1986,-0.2056,-0.1938,-0.1897,-0.1641,-0.154,-0.1472,-0.1604,-0.1541,-0.1556,-0.1576,-0.1544,-0.152,-0.1335,-0.1337,-0.1339,-0.134,-0.1342,0,-0.172,-0.1731,-0.1745,-0.1753,-0.1728,-0.1802,-0.1824,-0.1762,-0.1706,-0.1745,-0.1693,-0.1491,-0.136,-0.1329,-0.115,-0.1115,-0.1123,-0.108,-0.1093,-0.1131,-0.1165,-0.1115,-0.079,-0.0789,-0.0787,-0.0786,0,0,-0.1652,-0.1615,-0.1626,-0.1528,-0.1526,-0.1428,-0.1399,-0.1353,-0.1332,-0.1263,-0.1207,-0.128,-0.1279,-0.1034,-0.0975,-0.085,-0.0986,-0.0808,-0.1248,-0.13,-0.1332,-0.1424,-0.1388,0,0,0,0,0]},{"header":{"parameterUnit":"m.s-1","parameterCategory":2,"la1":30.2991,"la2":30.254,"lo1":-89.0895,"lo2":-89.0444,"dy":0.0017,"dx":0.0017,"nx":28,"ny":28,"refTime":"2024-03-28T21:00:00:Z","depth":"2","parameterNumber":3,"parameterNumberName":"V-component_of_CURRENTS"},"data":[0,0,0,0,0,0,0,0,0,0,0,0,0,0,0,0,0,0,0,0,0,0,0,0,0,0,0,0,0,0,0,0,0,0,0,0,0,0,0,0,0,0,0,0,0,0,0,0,0,0,0,0,0,0,0,0,0,0,-0.0342,-0.0341,0,-0.0274,-0.0273,-0.0272,-0.0224,-0.0224,-0.0224,-0.0224,-0.013,-0.0128,-0.0125,0,0,0,0,0,0,0,0,0,0,0,0,0,-0.0371,-0.0371,-0.0342,-0.0341,-0.0341,-0.0274,-0.0273,-0.0272,-0.0224,-0.0224,-0.0224,-0.0224,-0.0131,-0.0128,-0.0125,0,0,0,0,0,0,0,0,0,0,0,0,0,-0.0334,-0.0371,-0.0342,-0.0311,-0.0308,-0.0275,-0.0273,-0.0272,-0.0224,-0.0224,-0.0224,-0.0224,-0.0132,-0.0128,-0.0125,-0.0105,0,0,-0.0114,-0.0112,0,0,0,0,0,0,0,0,-0.0336,-0.0332,-0.0316,-0.0313,-0.031,-0.026,-0.0249,-0.0216,-0.0224,-0.0253,-0.0224,-0.0224,-0.0173,-0.0166,-0.015,-0.0101,-0.0097,-0.0113,-0.0111,-0.011,-0.0109,0,0,0,0,0,0,0,-0.0338,-0.0334,-0.0312,-0.0316,-0.0312,-0.0281,-0.0276,-0.0242,-0.0212,-0.025,-0.0248,-0.0245,-0.0171,-0.0153,-0.0147,-0.0095,-0.0113,-0.011,-0.0108,-0.0107,0.0002,0.0003,0,0,0,0,0,0,-0.0356,-0.0337,-0.0314,-0.031,-0.0326,-0.0281,-0.0275,-0.0274,-0.0213,-0.0204,-0.0245,-0.0243,-0.016,-0.0152,-0.0144,-0.0109,-0.011,-0.0106,-0.0104,0.0002,0.0003,0.0003,0,0,0,0,0,0,-0.0357,-0.0355,-0.0317,-0.0324,-0.0318,-0.0281,-0.028,-0.0273,-0.0254,-0.021,-0.02,-0.0235,-0.0159,-0.0149,-0.0107,-0.0105,-0.0105,-0.0101,0.0001,0.0002,0.0003,-0.0044,0,0,0,0,0,0,-0.0358,-0.0356,-0.0362,-0.0326,-0.0318,-0.0301,-0.028,-0.0271,-0.0255,-0.0251,-0.0198,-0.0189,-0.0158,-0.0112,-0.0103,-0.01,-0.0098,-0.0,0.0001,0.0003,-0.0043,-0.0044,-0.0045,0,0,0,0,0,-0.036,-0.0369,-0.0363,-0.036,-0.0328,-0.0301,-0.0294,-0.0265,-0.0255,-0.0248,-0.0206,-0.019,-0.0097,-0.0109,-0.0098,-0.0094,-0.0001,0.0001,0.0003,-0.0042,-0.0044,-0.0045,0,0,0,0,0,0,-0.0386,-0.0365,-0.0357,-0.036,-0.0336,-0.0295,-0.0289,-0.0268,-0.023,-0.0227,-0.0181,-0.0168,-0.0135,-0.0102,-0.0116,-0.0056,-0.0047,-0.0043,-0.0084,-0.0085,-0.0087,-0.0097,-0.0095,0,0,0,0,0,-0.0397,-0.0401,-0.0369,-0.0375,-0.0363,-0.0326,-0.0313,-0.0294,-0.0257,-0.024,-0.0198,-0.0154,-0.0119,-0.0094,-0.006,-0.0023,0.0009,-0.0012,-0.0013,-0.0014,-0.0014,0.0036,0.0039,0.0009,0.0009,0.0009,0,0,-0.0412,-0.04,-0.0404,-0.0381,-0.0359,-0.0342,-0.0316,-0.0301,-0.0284,-0.0236,-0.0196,-0.0162,-0.0112,-0.0076,-0.0057,-0.0047,0.0013,-0.0012,-0.0014,-0.0013,0.0038,0.0041,0.0043,0.001,0.001,0.0009,0,0,-0.0437,-0.0429,-0.0434,-0.0414,-0.0389,-0.0363,-0.036,-0.0316,-0.0292,-0.0254,-0.0218,-0.0175,-0.0117,-0.0076,-0.0051,-0.0034,-0.0003,-0.0027,-0.0033,0.0015,0.0017,0.002,0.0064,0.0071,-0.0019,-0.0019,-0.0019,0,-0.0455,-0.0458,-0.0432,-0.0424,-0.0414,-0.0373,-0.0369,-0.0336,-0.0283,-0.0264,-0.0248,-0.0157,-0.0115,-0.0068,-0.0059,-0.0038,-0.0009,-0.0037,0.0011,0.0015,0.0018,0.0063,0.0071,-0.0021,-0.0021,-0.0021,-0.0021,0,-0.0476,-0.0476,-0.0476,-0.0455,-0.0436,-0.043,-0.0385,-0.0359,-0.0327,-0.0291,-0.0241,-0.0178,-0.0124,-0.0103,-0.0074,-0.0029,-0.0017,-0.0006,0.0008,0.0018,0.0065,0.0074,-0.0024,-0.0024,-0.0023,-0.0023,0,0,-0.0518,-0.0498,-0.0496,-0.0499,-0.0456,-0.0447,-0.0415,-0.0377,-0.0361,-0.0299,-0.0269,-0.0195,-0.0162,-0.013,-0.0086,-0.0035,0.0018,-0.0012,-0.0009,0.002,0.012,0.0154,0.0168,0.0031,0.0033,0.0034,0.0142,0,-0.0542,-0.0555,-0.0525,-0.0529,-0.0532,-0.0483,-0.0459,-0.0418,-0.0372,-0.0329,-0.0257,-0.0214,-0.0172,-0.015,-0.0092,-0.0014,0.004,-0.0013,0.0117,0.0121,0.014,0.0179,0.0147,0.0243,0.0151,0.0152,0.0154,0,-0.0569,-0.0577,-0.0593,-0.0581,-0.0575,-0.0564,-0.0529,-0.0501,-0.0426,-0.0389,-0.0327,-0.0269,-0.0183,-0.0154,-0.0008,-0.0047,0.0032,0.0097,0.0103,0.0158,0.0173,0.0221,0.0264,0.017,0.0168,0.0167,0.0166,0,-0.063,-0.0623,-0.0646,-0.0641,-0.0613,-0.0607,-0.0588,-0.0526,-0.0503,-0.0429,-0.0402,-0.0297,-0.0239,-0.013,0.0013,0.0001,0.0173,0.0174,0.0282,0.0285,0.0297,0.0299,0.0277,0.0277,0.0277,0.0277,0.0276,0,-0.0676,-0.0691,-0.0681,-0.0694,-0.0719,-0.0671,-0.0672,-0.0635,-0.0572,-0.0538,-0.0444,-0.0385,-0.0231,-0.011,0.0007,0.0181,0.0174,0.0293,0.0321,0.0281,0.028,0.0245,0.024,0.0281,0.028,0.0279,0.0278,0,-0.0738,-0.0731,-0.0758,-0.0748,-0.0752,-0.077,-0.0743,-0.0734,-0.0666,-0.0617,-0.0593,-0.0445,-0.0278,-0.0118,0.0079,0.018,0.0335,0.0396,0.0338,0.0359,0.0412,0.0403,0.0525,0.0527,0.0529,0.0531,0.0532,0,-0.0773,-0.0794,-0.0816,-0.0843,-0.0842,-0.0857,-0.0863,-0.08,-0.0776,-0.0639,-0.0616,-0.0445,-0.03,-0.0006,0.0199,0.0416,0.0401,0.05,0.0479,0.0425,0.0441,0.0429,0.0418,0.0476,0.0477,0.0478,0.0478,0,-0.0832,-0.0836,-0.0861,-0.0926,-0.095,-0.0968,-0.0962,-0.095,-0.0847,-0.0778,-0.0633,-0.05,-0.0197,0.0054,0.0328,0.0439,0.0461,0.0521,0.0496,0.0415,0.0388,0.04,0.0389,0.0484,0.0483,0.0483,0.0482,0.0482,-0.087,-0.0909,-0.0946,-0.1003,-0.1039,-0.1057,-0.1063,-0.1018,-0.096,-0.0824,-0.067,-0.0457,-0.0186,0.0203,0.0407,0.0567,0.0561,0.0586,0.058,0.0575,0.0547,0.0524,0.0641,0.0641,0.0641,0.0642,0.0642,0,-0.0917,-0.0957,-0.102,-0.1081,-0.1129,-0.1126,-0.1113,-0.1081,-0.1005,-0.0849,-0.0689,-0.0366,-0.0071,0.0186,0.047,0.0653,0.0619,0.0652,0.0579,0.0573,0.0567,0.0536,0.0629,0.0629,0.063,0.063,0,0,-0.0942,-0.1012,-0.1046,-0.1141,-0.1182,-0.1207,-0.1193,-0.1118,-0.1005,-0.0829,-0.0663,-0.044,-0.0077,0.0121,0.0354,0.0499,0.0474,0.0494,0.0484,0.0362,0.0355,0.051,0.0453,0,0,0,0,0]}],[{"header":{"parameterUnit":"m.s-1","parameterCategory":2,"la1":30.2991,"la2":30.254,"lo1":-89.0895,"lo2":-89.0444,"dy":0.0017,"dx":0.0017,"nx":28,"ny":28,"refTime":"2024-03-28T21:00:00:Z","depth":"4","parameterNumber":2,"parameterNumberName":"U-component_of_CURRENTS"},"data":[0,0,0,0,0,0,0,0,0,0,0,0,0,0,0,0,0,0,0,0,0,0,0,0,0,0,0,0,0,0,0,0,0,0,0,0,0,0,0,0,0,0,0,0,0,0,0,0,0,0,0,0,0,0,0,0,0,0,-0.1442,-0.1443,0,-0.1521,-0.1522,-0.1523,-0.1554,-0.1554,-0.1554,-0.1554,-0.1623,-0.1625,-0.1627,0,0,0,0,0,0,0,0,0,0,0,0,0,-0.1358,-0.1359,-0.1442,-0.1444,-0.1445,-0.1521,-0.1522,-0.1523,-0.1554,-0.1554,-0.1554,-0.1554,-0.1622,-0.1624,-0.1627,0,0,0,0,0,0,0,0,0,0,0,0,0,-0.141,-0.1359,-0.1442,-0.1471,-0.1474,-0.1521,-0.1522,-0.1523,-0.1554,-0.1554,-0.1554,-0.1554,-0.1622,-0.1624,-0.1627,-0.1645,0,0,-0.1636,-0.1637,0,0,0,0,0,0,0,0,-0.1407,-0.1412,-0.1465,-0.1469,-0.1473,-0.1529,-0.1518,-0.1564,-0.1554,-0.1521,-0.1554,-0.1554,-0.1592,-0.1597,-0.161,-0.1649,-0.1652,-0.1636,-0.1638,-0.1639,-0.164,0,0,0,0,0,0,0,-0.1403,-0.1409,-0.1472,-0.1467,-0.1471,-0.1494,-0.15,-0.1527,-0.1554,-0.1524,-0.1527,-0.1539,-0.1594,-0.1607,-0.1611,-0.1653,-0.1636,-0.1638,-0.164,-0.1641,-0.1769,-0.177,0,0,0,0,0,0,-0.1395,-0.1406,-0.1469,-0.1474,-0.1441,-0.1495,-0.1502,-0.151,-0.1554,-0.1562,-0.1539,-0.154,-0.1602,-0.1608,-0.1614,-0.1703,-0.1639,-0.1641,-0.1643,-0.1767,-0.1769,-0.1771,0,0,0,0,0,0,-0.1393,-0.14,-0.1466,-0.1444,-0.1454,-0.1496,-0.1504,-0.1511,-0.1551,-0.1566,-0.1573,-0.1574,-0.1602,-0.161,-0.1662,-0.1703,-0.1643,-0.1645,-0.1765,-0.1768,-0.177,-0.1839,0,0,0,0,0,0,-0.139,-0.1399,-0.1419,-0.1443,-0.1455,-0.1509,-0.1505,-0.1513,-0.1557,-0.156,-0.1598,-0.1603,-0.1603,-0.1658,-0.1665,-0.1706,-0.1647,-0.1763,-0.1766,-0.1769,-0.1835,-0.1844,-0.1852,0,0,0,0,0,-0.1387,-0.1418,-0.1419,-0.1428,-0.1475,-0.151,-0.1519,-0.1547,-0.1559,-0.1582,-0.161,-0.1603,-0.1683,-0.1662,-0.1669,-0.1712,-0.1761,-0.1765,-0.1769,-0.1831,-0.1842,-0.1851,0,0,0,0,0,0,-0.1397,-0.1425,-0.1426,-0.1465,-0.149,-0.1516,-0.1554,-0.1566,-0.1607,-0.1622,-0.1628,-0.1635,-0.1693,-0.1695,-0.1671,-0.1758,-0.172,-0.1726,-0.1765,-0.1775,-0.1784,-0.1779,-0.165,0,0,0,0,0,-0.1405,-0.1435,-0.1455,-0.1489,-0.1506,-0.1533,-0.1559,-0.1576,-0.1608,-0.1627,-0.1652,-0.1682,-0.1711,-0.1737,-0.1758,-0.1813,-0.1787,-0.1844,-0.1853,-0.186,-0.1861,-0.1855,-0.1862,-0.1784,-0.1784,-0.1783,0,0,-0.142,-0.144,-0.1458,-0.1494,-0.152,-0.1557,-0.155,-0.16,-0.1638,-0.1629,-0.1701,-0.1713,-0.1731,-0.1786,-0.1813,-0.1797,-0.1869,-0.1865,-0.1871,-0.1868,-0.1859,-0.1867,-0.1873,-0.1786,-0.1786,-0.1785,0,0,-0.1458,-0.1481,-0.1515,-0.1541,-0.1585,-0.1601,-0.162,-0.166,-0.1689,-0.1748,-0.175,-0.1786,-0.1841,-0.1856,-0.1872,-0.1942,-0.1909,-0.1956,-0.2004,-0.1998,-0.2004,-0.2009,-0.1982,-0.1984,-0.1966,-0.1966,-0.1966,0,-0.1477,-0.1512,-0.1533,-0.1572,-0.1602,-0.1624,-0.1665,-0.1702,-0.1754,-0.1777,-0.1782,-0.1853,-0.1873,-0.1926,-0.1955,-0.1961,-0.1942,-0.1964,-0.2008,-0.2012,-0.2016,-0.1987,-0.1988,-0.197,-0.1969,-0.1969,-0.1969,0,-0.1524,-0.1566,-0.1595,-0.1645,-0.1681,-0.1724,-0.1764,-0.1808,-0.1844,-0.1866,-0.1927,-0.195,-0.1983,-0.2005,-0.201,-0.2055,-0.2027,-0.2012,-0.1978,-0.2027,-0.1994,-0.1994,-0.1975,-0.1974,-0.1973,-0.1972,0,0,-0.1523,-0.161,-0.1621,-0.1652,-0.1722,-0.175,-0.1826,-0.1878,-0.1918,-0.197,-0.2011,-0.2075,-0.2072,-0.2088,-0.2094,-0.2105,-0.2124,-0.2082,-0.208,-0.2049,-0.2096,-0.1954,-0.194,-0.2116,-0.2117,-0.2117,-0.206,0,-0.1551,-0.1627,-0.1669,-0.1745,-0.1782,-0.183,-0.1891,-0.1945,-0.1989,-0.2034,-0.2062,-0.2105,-0.2109,-0.2127,-0.2142,-0.2125,-0.2128,-0.2139,-0.2059,-0.2056,-0.1918,-0.1936,-0.2119,-0.206,-0.206,-0.206,-0.206,0,-0.1565,-0.1618,-0.1694,-0.1779,-0.1802,-0.1856,-0.1936,-0.1992,-0.2058,-0.209,-0.213,-0.2143,-0.2181,-0.2169,-0.2164,-0.2171,-0.2144,-0.2126,-0.2123,-0.1963,-0.1914,-0.2002,-0.2059,-0.2059,-0.2059,-0.2059,-0.2059,0,-0.152,-0.1626,-0.1686,-0.1718,-0.1824,-0.1873,-0.1929,-0.2007,-0.2049,-0.2118,-0.2143,-0.2179,-0.2194,-0.218,-0.2154,-0.2162,-0.2122,-0.2119,-0.1961,-0.195,-0.2065,-0.206,-0.2105,-0.2105,-0.2105,-0.2105,-0.2105,0,-0.1504,-0.1555,-0.1675,-0.1707,-0.1777,-0.1859,-0.1931,-0.1989,-0.2065,-0.2091,-0.2162,-0.2164,-0.22,-0.2182,-0.2154,-0.2043,-0.2115,-0.1961,-0.1925,-0.2096,-0.2095,-0.2064,-0.206,-0.2103,-0.2103,-0.2104,-0.2104,0,-0.1434,-0.1518,-0.1589,-0.1715,-0.1756,-0.1803,-0.1921,-0.1961,-0.2049,-0.2082,-0.2103,-0.2157,-0.2117,-0.2122,-0.2084,-0.2017,-0.1944,-0.1887,-0.2057,-0.2034,-0.1777,-0.1778,-0.1698,-0.1693,-0.1688,-0.1684,-0.1681,0,-0.14,-0.1434,-0.1572,-0.1611,-0.1673,-0.1762,-0.1813,-0.1931,-0.1958,-0.2043,-0.203,-0.2045,-0.2054,-0.1874,-0.1907,-0.1823,-0.1805,-0.1764,-0.1786,-0.1761,-0.1735,-0.1743,-0.175,-0.1673,-0.1672,-0.1671,-0.167,0,-0.1329,-0.1391,-0.1449,-0.1527,-0.1597,-0.1659,-0.1736,-0.1749,-0.1855,-0.1958,-0.1889,-0.1854,-0.1801,-0.1754,-0.1703,-0.1651,-0.1792,-0.1715,-0.1725,-0.1745,-0.173,-0.1711,-0.1723,-0.1654,-0.1656,-0.1657,-0.1658,0,-0.1268,-0.1288,-0.1365,-0.1416,-0.1497,-0.1515,-0.1584,-0.1601,-0.1642,-0.1741,-0.1704,-0.1715,-0.1765,-0.1662,-0.1612,-0.155,-0.1529,-0.1489,-0.151,-0.1528,-0.15,-0.1458,-0.1257,0,0,0,0,0,-0.1196,-0.12,-0.1243,-0.1284,-0.1354,-0.1388,-0.1505,-0.1574,-0.1685,-0.1585,-0.1638,-0.1574,-0.1494,-0.1505,-0.14,-0.1543,-0.1546,-0.1418,-0.1515,-0.1564,-0.1582,-0.1566,0,0,0,0,0,0,-0.1146,-0.1184,-0.1196,-0.1152,-0.1145,-0.1198,-0.1267,-0.135,-0.1304,-0.1418,-0.1373,-0.1455,-0.1395,-0.1495,-0.1347,-0.1353,-0.1381,-0.1437,-0.1433,-0.1553,-0.157,-0.1585,-0.1575,0,0,0,0,0]},{"header":{"parameterUnit":"m.s-1","parameterCategory":2,"la1":30.2991,"la2":30.254,"lo1":-89.0895,"lo2":-89.0444,"dy":0.0017,"dx":0.0017,"nx":28,"ny":28,"refTime":"2024-03-28T21:00:00:Z","depth":"4","parameterNumber":3,"parameterNumberName":"V-component_of_CURRENTS"},"data":[0,0,0,0,0,0,0,0,0,0,0,0,0,0,0,0,0,0,0,0,0,0,0,0,0,0,0,0,0,0,0,0,0,0,0,0,0,0,0,0,0,0,0,0,0,0,0,0,0,0,0,0,0,0,0,0,0,0,-0.0359,-0.0358,0,-0.0324,-0.0324,-0.0323,-0.0313,-0.0313,-0.0313,-0.0314,-0.0271,-0.027,-0.0268,0,0,0,0,0,0,0,0,0,0,0,0,0,-0.0363,-0.0363,-0.0359,-0.0358,-0.0358,-0.0324,-0.0324,-0.0323,-0.0313,-0.0313,-0.0313,-0.0314,-0.0272,-0.027,-0.0268,0,0,0,0,0,0,0,0,0,0,0,0,0,-0.0347,-0.0363,-0.0359,-0.0349,-0.0348,-0.0324,-0.0324,-0.0323,-0.0313,-0.0313,-0.0313,-0.0314,-0.0272,-0.027,-0.0268,-0.0249,0,0,-0.0262,-0.0261,0,0,0,0,0,0,0,0,-0.0348,-0.0347,-0.0351,-0.035,-0.0348,-0.0324,-0.0309,-0.0298,-0.0313,-0.0326,-0.0314,-0.0314,-0.0288,-0.0285,-0.0277,-0.0247,-0.0245,-0.0262,-0.0261,-0.026,-0.0259,0,0,0,0,0,0,0,-0.0349,-0.0348,-0.0344,-0.035,-0.0349,-0.0328,-0.0327,-0.0307,-0.0305,-0.0324,-0.0324,-0.0321,-0.0287,-0.0279,-0.0276,-0.0244,-0.0262,-0.026,-0.0259,-0.0258,-0.0181,-0.0181,0,0,0,0,0,0,-0.0357,-0.035,-0.0346,-0.0343,-0.035,-0.0328,-0.0327,-0.0331,-0.0305,-0.0302,-0.032,-0.032,-0.0282,-0.0278,-0.0274,-0.0245,-0.026,-0.0258,-0.0257,-0.0182,-0.0181,-0.018,0,0,0,0,0,0,-0.0358,-0.0358,-0.0347,-0.0346,-0.0343,-0.0328,-0.0333,-0.033,-0.0326,-0.0302,-0.0299,-0.0321,-0.0282,-0.0277,-0.0257,-0.0244,-0.0257,-0.0255,-0.0183,-0.0182,-0.0181,-0.0191,0,0,0,0,0,0,-0.0358,-0.0358,-0.0364,-0.0347,-0.0343,-0.0338,-0.0332,-0.0329,-0.0324,-0.0324,-0.0301,-0.0297,-0.0282,-0.026,-0.0255,-0.0241,-0.0253,-0.0184,-0.0183,-0.0181,-0.0191,-0.019,-0.0189,0,0,0,0,0,-0.0358,-0.0365,-0.0365,-0.0364,-0.0353,-0.0338,-0.0335,-0.0325,-0.0324,-0.0323,-0.0304,-0.0298,-0.0246,-0.0258,-0.0252,-0.0238,-0.0185,-0.0183,-0.0181,-0.0192,-0.019,-0.0189,0,0,0,0,0,0,-0.0368,-0.0364,-0.0364,-0.0368,-0.0358,-0.0337,-0.0335,-0.0328,-0.0312,-0.0314,-0.0291,-0.0286,-0.0263,-0.0247,-0.0261,-0.0209,-0.0212,-0.0209,-0.0223,-0.0221,-0.0219,-0.0218,-0.0252,0,0,0,0,0,-0.0374,-0.0382,-0.0368,-0.0374,-0.0369,-0.0353,-0.0347,-0.0341,-0.0325,-0.0319,-0.0299,-0.0275,-0.0248,-0.0234,-0.0213,-0.0187,-0.0161,-0.0171,-0.017,-0.0169,-0.0162,-0.0109,-0.0103,-0.0174,-0.0174,-0.0174,0,0,-0.0381,-0.0379,-0.0385,-0.0377,-0.0368,-0.0358,-0.035,-0.0345,-0.0333,-0.0316,-0.0294,-0.0274,-0.0242,-0.0213,-0.02,-0.0199,-0.0136,-0.0167,-0.0166,-0.016,-0.0107,-0.01,-0.0093,-0.0173,-0.0173,-0.0173,0,0,-0.0392,-0.0396,-0.0402,-0.0393,-0.0383,-0.0369,-0.037,-0.035,-0.0338,-0.0317,-0.0297,-0.0265,-0.0234,-0.0198,-0.0177,-0.0152,-0.0135,-0.0151,-0.0139,-0.0088,-0.0081,-0.0076,-0.0042,-0.0033,-0.0146,-0.0146,-0.0146,0,-0.04,-0.0407,-0.04,-0.0397,-0.0391,-0.0375,-0.0371,-0.0352,-0.0327,-0.0312,-0.0314,-0.0246,-0.022,-0.0167,-0.0157,-0.0148,-0.0127,-0.0151,-0.0086,-0.008,-0.0074,-0.004,-0.003,-0.0146,-0.0146,-0.0146,-0.0146,0,-0.041,-0.0414,-0.0415,-0.0408,-0.0397,-0.0396,-0.0368,-0.0354,-0.034,-0.0316,-0.0273,-0.0231,-0.019,-0.0172,-0.0156,-0.0097,-0.0101,-0.0096,-0.0094,-0.0067,-0.0034,-0.0023,-0.0147,-0.0147,-0.0147,-0.0146,0,0,-0.043,-0.0425,-0.0426,-0.043,-0.0407,-0.0403,-0.0375,-0.0346,-0.0331,-0.0293,-0.0263,-0.0199,-0.0181,-0.0155,-0.0126,-0.0073,-0.0011,-0.0069,-0.0066,-0.0041,0.0088,0.0065,0.0075,-0.0001,0.0001,0.0002,0.0091,0,-0.0441,-0.0452,-0.0436,-0.0438,-0.0441,-0.0413,-0.0391,-0.036,-0.033,-0.0295,-0.0234,-0.02,-0.0173,-0.0158,-0.0098,-0.0039,0.0018,-0.0036,0.0064,0.0067,0.004,0.0087,0.0009,0.0099,0.0101,0.0103,0.0104,0,-0.0454,-0.0462,-0.0474,-0.0467,-0.0463,-0.0458,-0.0429,-0.0407,-0.0345,-0.0319,-0.0263,-0.0223,-0.014,-0.0126,0.0006,-0.0035,0.0029,0.0082,0.0086,0.0078,0.0065,0.0071,0.0124,0.0122,0.0121,0.0119,0.0118,0,-0.0488,-0.0486,-0.0504,-0.0502,-0.0486,-0.0483,-0.0471,-0.0421,-0.0404,-0.0338,-0.0319,-0.022,-0.0179,-0.0077,0.0027,0.0018,0.0167,0.0167,0.0214,0.0212,0.0208,0.0201,0.0275,0.0275,0.0275,0.0274,0.0274,0,-0.0508,-0.0521,-0.0529,-0.0539,-0.056,-0.0528,-0.053,-0.0501,-0.0451,-0.0425,-0.0344,-0.0298,-0.0164,-0.0067,0.003,0.015,0.0172,0.023,0.0243,0.02,0.0191,0.0215,0.0206,0.0278,0.0277,0.0276,0.0276,0,-0.0539,-0.0543,-0.0568,-0.0572,-0.0582,-0.0598,-0.0591,-0.0582,-0.0531,-0.0492,-0.0473,-0.0351,-0.0224,-0.0093,0.0076,0.0143,0.0265,0.0304,0.0242,0.0246,0.0275,0.0266,0.037,0.037,0.037,0.037,0.0371,0,-0.0554,-0.0573,-0.0611,-0.0641,-0.065,-0.0671,-0.0682,-0.0637,-0.0619,-0.0519,-0.0499,-0.0371,-0.0279,-0.006,0.0075,0.0258,0.0282,0.0339,0.0325,0.0288,0.029,0.028,0.0271,0.0371,0.0371,0.0371,0.0371,0,-0.0583,-0.0602,-0.0627,-0.0697,-0.0729,-0.0752,-0.0759,-0.0747,-0.0674,-0.0631,-0.0505,-0.0372,-0.0229,-0.0059,0.0078,0.0211,0.0298,0.0341,0.0341,0.0329,0.029,0.029,0.028,0.0371,0.0371,0.0371,0.0371,0,-0.0607,-0.0638,-0.0685,-0.0739,-0.0791,-0.0813,-0.0808,-0.0762,-0.0727,-0.06,-0.0559,-0.0383,-0.0273,-0.0082,0.0048,0.0169,0.0201,0.0236,0.0243,0.0244,0.0176,0.0107,0.0157,0,0,0,0,0,-0.0624,-0.0665,-0.0723,-0.078,-0.0831,-0.0856,-0.0848,-0.0821,-0.0749,-0.0667,-0.0605,-0.0462,-0.0236,-0.0134,-0.0016,0.0031,0.0201,0.0171,0.0238,0.0374,0.0373,0.0312,0,0,0,0,0,0,-0.0638,-0.0698,-0.0726,-0.0802,-0.0847,-0.089,-0.0883,-0.0833,-0.077,-0.0681,-0.0562,-0.0456,-0.0247,-0.0317,-0.0025,0.0015,0.0071,0.0286,0.0288,0.0374,0.0374,0.0373,0.031,0,0,0,0,0]}]]